Weather History for GMTA - September, 2013

Change the Weather History Date:

Monday, September 16, 2013

  Actual Average Record
Temperature  
Mean Temperature 79 °F -  
Max Temperature 85 °F 73 °F 90 °F (2014)
Min Temperature 73 °F 61 °F 33 °F (2004)
Cooling Degree Days 14    
Growing Degree Days 29 (Base 50)    
Moisture  
Dew Point 69 °F    
Average Humidity 72    
Maximum Humidity 78    
Minimum Humidity 60    
Precipitation  
Precipitation 0.00 in - - ()
Sea Level Pressure  
Sea Level Pressure 29.98 in    
Wind  
Wind Speed 4 mph ()    
Max Wind Speed 14 mph    
Max Gust Speed -    
Visibility 6.6 miles    
Events      
Averages and records for this station are not official NWS values.
T = Trace of Precipitation, MM = Missing Value Source: Averaged Metar Reports

Daily Weather History Graph

Daily Weather History Graph

Search for Another Location

Airport or City:

Trip Planner

Search our weather history database for the weather conditions in past years. The results will help you decide how hot, cold, wet, or windy it might be!

Date:

Astronomy

Sep. 16, 2013 Rise Set
Actual Time 6:58 AM WEST 7:20 PM WEST
Civil Twilight 6:33 AM WEST 7:46 PM WEST
Nautical Twilight 6:03 AM WEST 8:15 PM WEST
Astronomical Twilight 5:33 AM WEST 8:46 PM WEST
Moon 5:15 PM WEST (9/16) 3:34 AM WEST (9/16)
Length of Visible Light 13h 12m
Length of Day
12h 21m
Waxing Gibbous, 88% of the Moon is Illuminated
Sep 16
Waxing Gibbous
Sep 19
Full
Sep 27
Last Quarter
Oct 5
New
Oct 12
First Quarter

Hourly Weather History & Observations

Time (WEST) Temp. Heat Index Dew Point Humidity Pressure Visibility Wind Dir Wind Speed Gust Speed Precip Events Conditions
1:00 AM 74 °F - 68 °F 75% 29.99 in 6 mi SSW 4.6 mph - -   Overcast
1:00 AM 75.2 °F - 68.0 °F 78% 29.98 in 6.2 mi SSW 4.6 mph - N/A   Mostly Cloudy
7:00 AM 73.4 °F - 66.2 °F 78% 29.95 in 6.2 mi SW 2.3 mph - N/A   Mostly Cloudy
8:00 AM 75.2 °F - 68.0 °F 78% 29.95 in 6.2 mi SSE 2.3 mph - N/A   Partly Cloudy
9:00 AM 77.0 °F - 68.0 °F 74% 29.98 in 6.2 mi SE 2.3 mph - N/A   Mostly Cloudy
10:00 AM 82 °F - 70 °F 60% 29.99 in 9 mi SE 2.3 mph - -   Scattered Clouds
10:00 AM 82.4 °F 86.3 °F 69.8 °F 66% 29.98 in 6.2 mi SE 2.3 mph - N/A   Mostly Cloudy
11:00 AM 82.4 °F 87.2 °F 71.6 °F 70% 29.98 in 6.2 mi NNW 6.9 mph - N/A   Mostly Cloudy
12:00 PM 80.6 °F 84.6 °F 71.6 °F 74% 30.01 in 6.2 mi North 11.5 mph - N/A   Mostly Cloudy
1:00 PM 81 °F - 71 °F 64% 30.00 in 9 mi North 13.8 mph - -   Scattered Clouds
1:00 PM 80.6 °F 84.6 °F 71.6 °F 74% 29.98 in 6.2 mi North 13.8 mph - N/A   Partly Cloudy
2:00 PM 78.8 °F - 69.8 °F 74% 29.98 in 6.2 mi NNE 9.2 mph - N/A   Scattered Clouds
3:00 PM 78.8 °F - 69.8 °F 74% 30.01 in 6.2 mi NE 4.6 mph - N/A   Scattered Clouds
4:00 PM 78.8 °F - 69.8 °F 74% 29.98 in 6.2 mi North 4.6 mph - N/A   Partly Cloudy
5:00 PM 78.8 °F - 69.8 °F 74% 29.98 in 6.2 mi North 4.6 mph - N/A   Scattered Clouds
6:00 PM 82.4 °F 86.3 °F 69.8 °F 66% 29.95 in 6.2 mi ESE 2.3 mph - N/A   Partly Cloudy
7:00 PM 78 °F - 69 °F 66% 29.96 in 9 mi North 2.3 mph - -   Scattered Clouds
7:00 PM 78.8 °F - 68.0 °F 69% 29.95 in 6.2 mi North 2.3 mph - N/A   Partly Cloudy
8:00 PM 77.0 °F - 68.0 °F 74% 29.95 in 6.2 mi West 2.3 mph - N/A   Partly Cloudy
9:00 PM 73.4 °F - 66.2 °F 78% 29.98 in 6.2 mi South 2.3 mph - N/A   Partly Cloudy
10:00 PM 74 °F - 65 °F 67% 29.99 in 6 mi SSW 2.3 mph - -   Scattered Clouds
10:00 PM 73.4 °F - 64.4 °F 73% 29.98 in 6.2 mi SSW 2.3 mph - N/A   Partly Cloudy